Home   Weather   Sidney   Past weeks

Flag for Canada Past Weather in Sidney, British Columbia, Canada — Yesterday and Last 2 Weeks

Now
41 °F

Light rain. Cloudy.


Feels Like: 33 °F
Forecast: 38 / 42 °F
Wind: 14 mph from Southeast

Location: Victoria Int. Airportb. C.

Current Time: Dec 10, 2016 at 12:37:48 pm

Latest Report: Dec 10, 2016 at 12:00 pm


Visibility: 20 mi

Pressure: 29.76 "Hg

Humidity: 87%

Dew Point: 37 °F

Location of SidneyLocation

Past Weather in Sidney — Graph

°F

Sidney Temperature Yesterday

Maximum temperature yesterday: 36 °F (at 7:00 pm)
Minimum temperature yesterday: 30 °F (at 12:00 am)
Average temperature yesterday: 32 °F

High & Low Weather Summary for the Past Weeks

 TemperatureHumidityPressure
High50 °F (Dec 2, 5:00 pm)100% (Nov 25, 10:00 pm)30.50 "Hg (Nov 25, 10:00 pm)
Low28 °F (Dec 7, 3:00 am)41% (Dec 7, 1:00 pm)29.41 "Hg (Nov 27, 7:00 pm)
Average39 °F84%30.00 "Hg
* Reported Nov 25 11:00 am — Dec 10 11:00 am, Sidney, Weather by CustomWeather, © 2016

Note: Actual official high and low records may vary slightly from our data, if they occured in-between our weather recording intervals... More about our weather records

Advertising

Sidney Weather History for the Previous 24 Hours

Scroll right to see more
 ConditionsComfort  
Time TempWeatherWind HumidityBarometerVisibility
11:00 am
Sat, Dec 10
39 °FLight rain. Cloudy.13 mph93%29.79 "Hg20 mi
10:00 am39 °FLight rain. Cloudy.9 mph93%29.81 "Hg20 mi
9:00 am36 °FLight rain. Cloudy.No wind100%29.80 "Hg12 mi
8:00 am32 °FCloudy.6 mph100%29.81 "Hg20 mi
7:00 am32 °FOvercast.2 mph100%29.81 "Hg15 mi
6:00 am32 °FPartly cloudy.5 mph100%29.81 "Hg15 mi
5:00 am34 °FFog.5 mph93%29.81 "Hg3 mi
4:48 am34 °FFog.6 mph93%29.80 "Hg1 mi
4:00 am32 °FIce fog.2 mph100%29.80 "Hg6 mi
3:00 am34 °FFog.6 mph100%29.81 "Hg1 mi
2:00 am32 °FPartly cloudy.2 mph93%29.79 "Hg20 mi
1:00 am34 °FPartly cloudy.5 mph93%29.79 "Hg15 mi
12:00 am34 °FPartly cloudy.5 mph100%29.79 "Hg15 mi
11:00 pm
Fri, Dec 9
34 °FOvercast.6 mph100%29.79 "Hg15 mi
10:00 pm34 °FFog.10 mph100%29.78 "Hg5 mi
9:47 pm34 °FFog.8 mph100%29.78 "Hg5 mi
9:00 pm34 °FLight rain. Fog.3 mph100%29.78 "Hg3 mi
8:00 pm34 °FLight rain. Fog.5 mph93%29.79 "Hg1 mi
7:00 pm36 °FLight rain. Fog.3 mph93%29.81 "Hg3 mi
6:00 pm32 °FLight snow. Mostly cloudy.3 mph100%29.82 "Hg2 mi
5:00 pm32 °FLight snow. Mostly cloudy.5 mph100%29.86 "Hg3 mi
4:00 pm32 °FLight snow. Mostly cloudy.5 mph100%29.88 "Hg3 mi
3:00 pm32 °FLight snow. Mostly cloudy.5 mph100%29.90 "Hg1 mi
2:00 pm32 °FLight snow. Cloudy.5 mph100%29.92 "Hg2 mi
1:00 pm32 °FLight snow. Mostly cloudy.7 mph93%29.93 "Hg7 mi
12:54 pm32 °FLight snow. Mostly cloudy.7 mph93%29.93 "Hg3 mi
12:00 pm32 °FLight snow. Cloudy.8 mph93%29.96 "Hg3 mi
Weather by CustomWeather, © 2016

See weather overviewHow to use our weather pages